OCO133S EBOS-EHAM

Flight info

Callsign OCO133S
Flight time N/A
Altitude 7000
Route COA DCT DENUT
Aircraft DA62/L-SDFGRY/C

Departure

Time 2026-05-07 20:49
Airport Ostend-Bruges International Airport (EBOS)

Arrival

Time N/A
Airport Amsterdam Airport Schiphol (EHAM)
Time Latitude Longitude Altitude Speed Heading
2026-05-07 20:48 51.19732 2.85778 13 ft 0 kts 76°
2026-05-07 20:49 51.19823 2.86377 13 ft 173 kts 75°
2026-05-07 20:49 51.20285 2.89350 633 ft 350 kts 77°
2026-05-07 20:49 51.21332 2.93038 1949 ft 372 kts
2026-05-07 20:49 51.21471 2.90483 961 ft 288 kts 240°
2026-05-07 20:50 51.20327 2.87005 153 ft 435 kts 246°
2026-05-07 20:50 51.18356 2.84564 553 ft 350 kts 134°
2026-05-07 20:50 51.19552 2.86029 431 ft 395 kts 344°
2026-05-07 20:50 51.21469 2.85021 580 ft 449 kts 343°
2026-05-07 20:51 51.25949 2.86213 1691 ft 638 kts 50°
2026-05-07 20:51 51.24034 2.90345 2469 ft 552 kts 193°
2026-05-07 20:51 51.20785 2.87536 571 ft 612 kts 208°
2026-05-07 20:51 51.16537 2.83217 795 ft 827 kts 229°
2026-05-07 20:52 51.15459 2.77133 1719 ft 914 kts 282°
2026-05-07 20:52 51.20190 2.74451 3411 ft 794 kts 45°
2026-05-07 20:52 51.20735 2.81158 2123 ft 550 kts 108°
2026-05-07 20:52 51.19770 2.88300 418 ft 777 kts 97°
2026-05-07 20:53 51.22758 2.92779 1458 ft 628 kts 342°
2026-05-07 20:53 51.25665 2.91484 2942 ft 411 kts 67°
2026-05-07 20:53 51.23937 2.94542 3648 ft 455 kts 161°
2026-05-07 20:53 51.22243 2.98244 3882 ft 455 kts 81°
2026-05-07 20:54 51.23912 3.02387 3793 ft 454 kts 83°
2026-05-07 20:54 51.22126 3.05395 3803 ft 465 kts 203°
2026-05-07 20:54 51.21255 3.00743 2966 ft 563 kts 269°
2026-05-07 20:54 51.20831 2.92701 272 ft 855 kts 257°
2026-05-07 20:55 51.18582 2.83833 1053 ft 917 kts 202°
2026-05-07 20:55 51.16096 2.78929 2985 ft 639 kts 311°
2026-05-07 20:55 51.18820 2.81421 1946 ft 567 kts 58°
2026-05-07 20:55 51.20096 2.88371 3787 ft 403 kts 79°
2026-05-07 20:56 51.19866 2.86425 12838 ft 365 kts 256°
2026-05-07 20:56 51.19352 2.84665 1917 ft 451 kts 216°
2026-05-07 20:56 51.17181 2.81970 488 ft 420 kts 293°
2026-05-07 20:56 51.19041 2.83122 305 ft 449 kts 63°
2026-05-07 20:57 51.20353 2.89369 988 ft 715 kts 73°
2026-05-07 20:57 51.19739 2.95098 2898 ft 530 kts 151°
2026-05-07 20:57 51.18561 2.92197 2486 ft 427 kts 301°
2026-05-07 20:57 51.20532 2.86607 719 ft 719 kts 309°
2026-05-07 20:58 51.24261 2.81217 2261 ft 675 kts 357°
2026-05-07 20:58 51.27083 2.84386 2927 ft 465 kts 90°
2026-05-07 20:58 51.25345 2.87440 2211 ft 407 kts 174°
2026-05-07 20:58 51.22212 2.87141 812 ft 423 kts 204°
2026-05-07 20:59 51.19191 2.85227 1375 ft 307 kts 181°
2026-05-07 20:59 51.19941 2.82438 2446 ft 387 kts 347°
2026-05-07 20:59 51.22647 2.81105 1668 ft 398 kts 301°
2026-05-07 20:59 51.21891 2.78049 1950 ft 311 kts 186°
2026-05-07 21:00 51.19825 2.78211 1614 ft 403 kts 126°
2026-05-07 21:00 51.19608 2.84220 166 ft 713 kts 73°
2026-05-07 21:00 51.22285 2.91211 968 ft 681 kts 36°
2026-05-07 21:00 51.23397 2.96200 1020 ft 471 kts 131°
2026-05-07 21:01 51.21361 2.95374 1059 ft 362 kts 253°
2026-05-07 21:01 51.20758 2.91582 134 ft 400 kts 256°
2026-05-07 21:01 51.20040 2.86661 141 ft 412 kts 261°
2026-05-07 21:01 51.19729 2.82810 300 ft 384 kts 248°
2026-05-07 21:02 51.17702 2.77755 112 ft 688 kts 244°
2026-05-07 21:02 51.20495 2.71749 2482 ft 806 kts 332°
2026-05-07 21:02 51.24093 2.68743 17550 ft 524 kts 332°
2026-05-07 21:02 51.26601 2.66748 34099 ft 212 kts 329°
2026-05-07 21:03 51.26505 2.67153 48572 ft 252 kts 146°
2026-05-07 21:03 51.24643 2.69396 53453 ft 374 kts 146°
2026-05-07 21:03 51.22463 2.71770 49698 ft 381 kts 149°
2026-05-07 21:03 51.19958 2.74380 38548 ft 609 kts 149°
2026-05-07 21:04 51.15638 2.78677 35359 ft 790 kts 150°
2026-05-07 21:04 51.10795 2.83440 35415 ft 845 kts 149°
2026-05-07 21:04 51.05663 2.88496 35526 ft 889 kts 149°
2026-05-07 21:04 51.00305 2.93783 35720 ft 924 kts 149°
2026-05-07 21:05 50.94755 2.99262 35892 ft 954 kts 149°
2026-05-07 21:05 50.89049 3.04892 35943 ft 979 kts 149°
2026-05-07 21:05 50.83191 3.10667 35731 ft 1003 kts 149°
2026-05-07 21:05 50.77604 3.17401 35552 ft 1028 kts 134°
2026-05-07 21:06 50.73070 3.26275 35382 ft 1045 kts 129°
2026-05-07 21:06 50.64019 3.44470 35455 ft 1063 kts 129°
2026-05-07 21:07 50.54869 3.62896 35617 ft 1074 kts 129°
2026-05-07 21:07 50.51190 3.70114 21367 ft 594 kts 128°
2026-05-07 21:07 50.47635 3.78384 4712 ft 1053 kts 122°
2026-05-07 21:07 50.43881 3.88106 5300 ft 994 kts 120°
2026-05-07 21:08 50.40078 3.96909 4768 ft 1007 kts 128°
2026-05-07 21:08 50.36905 3.99856 4920 ft 949 kts 201°